Year,Month,Day,Hour,Minute,Value (Times are PST for temperature in C)
2011,09,23,11,08,16.80
2011,09,23,11,09,16.80
2011,09,23,11,10,16.90
2011,09,23,11,11,16.90
2011,09,23,11,12,17.00
2011,09,23,11,13,17.10
2011,09,23,11,14,17.10
2011,09,23,11,15,17.20
2011,09,23,11,16,17.30
2011,09,23,11,17,17.30
2011,09,23,11,18,17.40
2011,09,23,11,19,17.40
2011,09,23,11,20,17.40
2011,09,23,11,21,17.40
2011,09,23,11,22,17.40
2011,09,23,11,23,17.40
2011,09,23,11,24,17.50
2011,09,23,11,25,17.50
2011,09,23,11,26,17.60
2011,09,23,11,27,17.70
2011,09,23,11,28,17.80
2011,09,23,11,29,17.80
2011,09,23,11,30,17.80
2011,09,23,11,31,17.90
2011,09,23,11,32,17.90
2011,09,23,11,33,18.00
2011,09,23,11,34,18.10
2011,09,23,11,35,18.20
2011,09,23,11,36,18.20
2011,09,23,11,37,18.30
2011,09,23,11,38,18.40
2011,09,23,11,39,18.40
2011,09,23,11,40,18.50
2011,09,23,11,41,18.60
2011,09,23,11,42,18.60
2011,09,23,11,43,18.70
2011,09,23,11,44,18.80
2011,09,23,11,45,18.90
2011,09,23,11,46,19.00
2011,09,23,11,47,19.10
2011,09,23,11,48,19.20
2011,09,23,11,49,19.30
2011,09,23,11,50,19.40
2011,09,23,11,51,19.40
2011,09,23,11,52,19.50
2011,09,23,11,53,19.60
2011,09,23,11,54,19.60
2011,09,23,11,55,19.70
2011,09,23,11,56,19.70
2011,09,23,11,57,19.80
2011,09,23,11,58,19.80
2011,09,23,11,59,19.90
2011,09,23,12,00,19.90
2011,09,23,12,01,20.00
2011,09,23,12,02,20.00
2011,09,23,12,03,20.10
2011,09,23,12,04,20.20
2011,09,23,12,05,20.20
2011,09,23,12,06,20.20
2011,09,23,12,07,20.20
2011,09,23,12,08,20.30
2011,09,23,12,09,20.30
2011,09,23,12,10,20.40
2011,09,23,12,11,20.50
2011,09,23,12,12,20.60
2011,09,23,12,13,20.60
2011,09,23,12,14,20.70
2011,09,23,12,15,20.70
2011,09,23,12,16,20.70
2011,09,23,12,17,20.80
2011,09,23,12,18,20.90
2011,09,23,12,19,20.90
2011,09,23,12,20,21.00
2011,09,23,12,21,21.10
2011,09,23,12,22,21.20
2011,09,23,12,23,21.30
2011,09,23,12,24,21.40
2011,09,23,12,25,21.50
2011,09,23,12,26,21.50
2011,09,23,12,27,21.50
2011,09,23,12,28,21.60
2011,09,23,12,29,21.60
2011,09,23,12,30,21.50
2011,09,23,12,31,21.50
2011,09,23,12,32,21.40
2011,09,23,12,33,21.40
2011,09,23,12,34,21.40
2011,09,23,12,35,21.30
2011,09,23,12,36,21.30
2011,09,23,12,37,21.30
2011,09,23,12,38,21.30
2011,09,23,12,39,21.20
2011,09,23,12,40,21.20
2011,09,23,12,41,21.20
2011,09,23,12,42,21.20
2011,09,23,12,43,21.20
2011,09,23,12,44,21.20
2011,09,23,12,45,21.20
2011,09,23,12,46,21.20
2011,09,23,12,47,21.20
2011,09,23,12,48,21.20
2011,09,23,12,49,21.20
2011,09,23,12,50,21.20
2011,09,23,12,51,21.20
2011,09,23,12,52,21.10
2011,09,23,12,53,21.10
2011,09,23,12,54,21.00
2011,09,23,12,55,20.90
2011,09,23,12,56,20.90
2011,09,23,12,57,20.80
2011,09,23,12,58,20.70
2011,09,23,12,59,20.70
2011,09,23,13,00,20.70
2011,09,23,13,01,20.70
2011,09,23,13,02,20.70
2011,09,23,13,03,20.70
2011,09,23,13,04,20.70
2011,09,23,13,05,20.70
2011,09,23,13,06,20.60
2011,09,23,13,07,20.60
2011,09,23,13,08,20.60
2011,09,23,13,09,20.50
2011,09,23,13,10,20.50
2011,09,23,13,11,20.50
2011,09,23,13,12,20.50
2011,09,23,13,13,20.50
2011,09,23,13,14,20.60
2011,09,23,13,15,20.60
2011,09,23,13,16,20.60
2011,09,23,13,17,20.60
2011,09,23,13,18,20.60
2011,09,23,13,19,20.70
2011,09,23,13,20,20.70
2011,09,23,13,21,20.80
2011,09,23,13,22,20.80
2011,09,23,13,23,20.90
2011,09,23,13,24,21.00
2011,09,23,13,25,21.00
2011,09,23,13,26,21.10
2011,09,23,13,27,21.10
2011,09,23,13,28,21.20
2011,09,23,13,29,21.20
2011,09,23,13,30,21.30
2011,09,23,13,31,21.30
2011,09,23,13,32,21.30
2011,09,23,13,33,21.30
2011,09,23,13,34,21.30
2011,09,23,13,35,21.30
2011,09,23,13,36,21.30
2011,09,23,13,37,21.30
2011,09,23,13,38,21.30
2011,09,23,13,39,21.40
2011,09,23,13,40,21.40
2011,09,23,13,41,21.50
2011,09,23,13,42,21.50
2011,09,23,13,43,21.50
2011,09,23,13,44,21.60
2011,09,23,13,45,21.60
2011,09,23,13,46,21.70
2011,09,23,13,47,21.70
2011,09,23,13,48,21.70
2011,09,23,13,49,21.80
2011,09,23,13,50,21.80
2011,09,23,13,51,21.80
2011,09,23,13,52,21.80
2011,09,23,13,53,21.80
2011,09,23,13,54,21.90
2011,09,23,13,55,21.90
2011,09,23,13,56,21.90
2011,09,23,13,57,21.90
2011,09,23,13,58,21.90
2011,09,23,13,59,21.80
2011,09,23,14,00,21.80
2011,09,23,14,01,21.70
2011,09,23,14,02,21.70
2011,09,23,14,03,21.60
2011,09,23,14,04,21.60
2011,09,23,14,05,21.60
2011,09,23,14,06,21.60
2011,09,23,14,07,21.50
2011,09,23,14,08,21.50
2011,09,23,14,09,21.50
2011,09,23,14,10,21.40
2011,09,23,14,11,21.40
2011,09,23,14,12,21.40
2011,09,23,14,13,21.30
2011,09,23,14,14,21.30
2011,09,23,14,15,21.30
2011,09,23,14,16,21.30
2011,09,23,14,17,21.30
2011,09,23,14,18,21.30
2011,09,23,14,19,21.20
2011,09,23,14,20,21.20
2011,09,23,14,21,21.20
2011,09,23,14,22,21.10
2011,09,23,14,23,21.10
2011,09,23,14,24,21.10
2011,09,23,14,25,21.00
2011,09,23,14,26,21.00
2011,09,23,14,27,21.00
2011,09,23,14,28,21.00
2011,09,23,14,29,21.00
2011,09,23,14,30,21.00
2011,09,23,14,31,21.00
2011,09,23,14,32,20.90
2011,09,23,14,33,20.90
2011,09,23,14,34,20.90
2011,09,23,14,35,20.90
2011,09,23,14,36,20.90
2011,09,23,14,37,21.00
2011,09,23,14,38,21.00
2011,09,23,14,39,21.10
2011,09,23,14,40,21.10
2011,09,23,14,41,21.10
2011,09,23,14,42,21.10
2011,09,23,14,43,21.10
2011,09,23,14,44,21.10
2011,09,23,14,45,21.10
2011,09,23,14,46,21.10
2011,09,23,14,47,21.20
2011,09,23,14,48,21.20
2011,09,23,14,49,21.20
2011,09,23,14,50,21.20
2011,09,23,14,51,21.20
2011,09,23,14,52,21.10
2011,09,23,14,53,21.10
2011,09,23,14,54,21.10
2011,09,23,14,55,21.10
2011,09,23,14,56,21.10
2011,09,23,14,57,21.10
2011,09,23,14,58,21.10
2011,09,23,14,59,21.10
2011,09,23,15,00,21.10
2011,09,23,15,01,21.10
2011,09,23,15,02,21.10
2011,09,23,15,03,21.00
2011,09,23,15,04,21.00
2011,09,23,15,05,20.90
2011,09,23,15,06,20.90
2011,09,23,15,07,20.90
2011,09,23,15,08,20.90
2011,09,23,15,09,20.90
2011,09,23,15,10,20.90
2011,09,23,15,11,20.90
2011,09,23,15,12,20.80
2011,09,23,15,13,20.80
2011,09,23,15,14,20.80
2011,09,23,15,15,20.70
2011,09,23,15,16,20.70
2011,09,23,15,17,20.70
2011,09,23,15,18,20.70
2011,09,23,15,19,20.70
2011,09,23,15,20,20.60
2011,09,23,15,21,20.60
2011,09,23,15,22,20.60
2011,09,23,15,23,20.60
2011,09,23,15,24,20.60
2011,09,23,15,25,20.60
2011,09,23,15,26,20.60
2011,09,23,15,27,20.60
2011,09,23,15,28,20.60
2011,09,23,15,29,20.60
2011,09,23,15,30,20.60
2011,09,23,15,31,20.60
2011,09,23,15,32,20.60
2011,09,23,15,33,20.60
2011,09,23,15,34,20.60
2011,09,23,15,35,20.60
2011,09,23,15,36,20.70
2011,09,23,15,37,20.70
2011,09,23,15,38,20.70
2011,09,23,15,39,20.70
2011,09,23,15,40,20.70
2011,09,23,15,41,20.70
2011,09,23,15,42,20.70
2011,09,23,15,43,20.70
2011,09,23,15,44,20.70
2011,09,23,15,45,20.70
2011,09,23,15,46,20.70
2011,09,23,15,47,20.80
2011,09,23,15,48,20.80
2011,09,23,15,49,20.80
2011,09,23,15,50,20.80
2011,09,23,15,51,20.80
2011,09,23,15,52,20.80
2011,09,23,15,53,20.90
2011,09,23,15,54,20.90
2011,09,23,15,55,20.90
2011,09,23,15,56,21.00
2011,09,23,15,57,21.00
2011,09,23,15,58,21.10
2011,09,23,15,59,21.10
2011,09,23,16,00,21.20
2011,09,23,16,01,21.20
2011,09,23,16,02,21.30
2011,09,23,16,03,21.30
2011,09,23,16,04,21.40
2011,09,23,16,05,21.40
2011,09,23,16,06,21.50
2011,09,23,16,07,21.50
2011,09,23,16,08,21.60
2011,09,23,16,09,21.70
2011,09,23,16,10,21.80
2011,09,23,16,11,21.80
2011,09,23,16,12,21.80
2011,09,23,16,13,21.90
2011,09,23,16,14,21.90
2011,09,23,16,15,22.00
2011,09,23,16,16,22.00
2011,09,23,16,17,22.00
2011,09,23,16,18,22.10
2011,09,23,16,19,22.20
2011,09,23,16,20,22.20
2011,09,23,16,21,22.30
2011,09,23,16,22,22.30
2011,09,23,16,23,22.40
2011,09,23,16,24,22.50
2011,09,23,16,25,22.60
2011,09,23,16,26,22.70
2011,09,23,16,27,22.90
2011,09,23,16,28,23.00
2011,09,23,16,29,23.10
2011,09,23,16,30,23.20
2011,09,23,16,31,23.30
2011,09,23,16,32,23.40
2011,09,23,16,33,23.50
2011,09,23,16,34,23.60
2011,09,23,16,35,23.60
2011,09,23,16,36,23.60
2011,09,23,16,37,23.50
2011,09,23,16,38,23.40
2011,09,23,16,39,23.30
2011,09,23,16,40,23.20
2011,09,23,16,41,23.10
2011,09,23,16,42,23.10
2011,09,23,16,43,23.00
2011,09,23,16,44,23.00
2011,09,23,16,45,22.90
2011,09,23,16,46,22.90
2011,09,23,16,47,22.90
2011,09,23,16,48,22.90
2011,09,23,16,49,22.80
2011,09,23,16,50,22.80
2011,09,23,16,51,22.80
2011,09,23,16,52,22.80
2011,09,23,16,53,22.80
2011,09,23,16,54,22.80
2011,09,23,16,55,22.70
2011,09,23,16,56,22.70
2011,09,23,16,57,22.70
2011,09,23,16,58,22.70
2011,09,23,16,59,22.70
2011,09,23,17,00,22.60
2011,09,23,17,01,22.60
2011,09,23,17,02,22.60
2011,09,23,17,03,22.60
2011,09,23,17,04,22.60
2011,09,23,17,05,22.60
2011,09,23,17,06,22.60
2011,09,23,17,07,22.60
2011,09,23,17,08,22.60
2011,09,23,17,09,22.70
2011,09,23,17,10,22.70
2011,09,23,17,11,22.70
2011,09,23,17,12,22.80
2011,09,23,17,13,22.90
2011,09,23,17,14,22.90
2011,09,23,17,15,23.00
2011,09,23,17,16,23.00
2011,09,23,17,17,23.00
2011,09,23,17,18,23.00
2011,09,23,17,19,23.00
2011,09,23,17,20,23.00
2011,09,23,17,21,23.00
2011,09,23,17,22,23.00
2011,09,23,17,23,22.90
2011,09,23,17,24,22.90
2011,09,23,17,25,22.90
2011,09,23,17,26,22.90
2011,09,23,17,27,22.90
2011,09,23,17,28,22.80
2011,09,23,17,29,22.80
2011,09,23,17,30,22.80
2011,09,23,17,31,22.80
2011,09,23,17,32,22.80
2011,09,23,17,33,22.80
2011,09,23,17,34,22.80
2011,09,23,17,35,22.80
2011,09,23,17,36,22.80
2011,09,23,17,37,22.80
2011,09,23,17,38,22.80
2011,09,23,17,39,22.80
2011,09,23,17,40,22.80
2011,09,23,17,41,22.80
2011,09,23,17,42,22.80
2011,09,23,17,43,22.80
2011,09,23,17,44,22.80
2011,09,23,17,45,22.80
2011,09,23,17,46,22.80
2011,09,23,17,47,22.80
2011,09,23,17,48,22.70
2011,09,23,17,49,22.70
2011,09,23,17,50,22.70
2011,09,23,17,51,22.70
2011,09,23,17,52,22.70
2011,09,23,17,53,22.70
2011,09,23,17,54,22.70
2011,09,23,17,55,22.70
2011,09,23,17,56,22.70
2011,09,23,17,57,22.70
2011,09,23,17,58,22.70
2011,09,23,17,59,22.60
2011,09,23,18,00,22.60
2011,09,23,18,01,22.60
2011,09,23,18,02,22.60
2011,09,23,18,03,22.60
2011,09,23,18,04,22.60
2011,09,23,18,05,22.50
2011,09,23,18,06,22.50
2011,09,23,18,07,22.50
2011,09,23,18,08,22.40
2011,09,23,18,09,22.40
2011,09,23,18,10,22.40
2011,09,23,18,11,22.30
2011,09,23,18,12,22.30
2011,09,23,18,13,22.30
2011,09,23,18,14,22.20
2011,09,23,18,15,22.20
2011,09,23,18,16,22.20
2011,09,23,18,17,22.10
2011,09,23,18,18,22.10
2011,09,23,18,19,22.10
2011,09,23,18,20,22.00
2011,09,23,18,21,22.00
2011,09,23,18,22,21.90
2011,09,23,18,23,21.90
2011,09,23,18,24,21.80
2011,09,23,18,25,21.80
2011,09,23,18,26,21.80
2011,09,23,18,27,21.80
2011,09,23,18,28,21.70
2011,09,23,18,29,21.60
2011,09,23,18,30,21.50
2011,09,23,18,31,21.40
2011,09,23,18,32,21.40
2011,09,23,18,33,21.30
2011,09,23,18,34,21.30
2011,09,23,18,35,21.30
2011,09,23,18,36,21.20
2011,09,23,18,37,21.20
2011,09,23,18,38,21.20
2011,09,23,18,39,21.10
2011,09,23,18,40,21.10
2011,09,23,18,41,21.10
2011,09,23,18,42,21.00
2011,09,23,18,43,20.90
2011,09,23,18,44,20.90
2011,09,23,18,45,20.80
2011,09,23,18,46,20.80
2011,09,23,18,47,20.70
2011,09,23,18,48,20.70
2011,09,23,18,49,20.70
2011,09,23,18,50,20.60
2011,09,23,18,51,20.50
2011,09,23,18,52,20.50
2011,09,23,18,53,20.40
2011,09,23,18,54,20.40
2011,09,23,18,55,20.30
2011,09,23,18,56,20.30
2011,09,23,18,57,20.20
2011,09,23,18,58,20.20
2011,09,23,18,59,20.20
2011,09,23,19,00,20.20
2011,09,23,19,01,20.20
2011,09,23,19,02,20.20
2011,09,23,19,03,20.20
2011,09,23,19,04,20.20
2011,09,23,19,05,20.20
2011,09,23,19,06,20.20
2011,09,23,19,07,20.20
